Regional Weather Roundup
Issued by NWS

Home | Current Version | Previous Version | Graphics & Text | Print | Product List | Glossary On
Versions: 1 2 3 4 5 6 7 8 9 10 11 12 13 14 15 16 17 18 19 20 21 22 23 24 25 26 27 28 29 30 31 32 33 34 35 36 37 38 39 40 41 42 43 44 45 46 47 48 49 50
000
ASUS43 KFSD 121702
RWRSD

WEATHER ROUNDUP FOR SOUTH DAKOTA
NATIONAL WEATHER SERVICE SIOUX FALLS SD
1200 PM CDT SAT JUL 12 2014

NOTE: "FAIR" INDICATES FEW OR NO CLOUDS BELOW 12,000 FEET WITH NO
SIGNIFICANT WEATHER AND/OR OBSTRUCTIONS TO VISIBILITY.


SDZ001>005-009-010-012>017-121800-
NORTHWEST AND NORTH CENTRAL SOUTH DAKOTA

CITY           SKY/WX    TMP DP  RH WIND       PRES   REMARKS
BUFFALO          N/A     72  61  68 VRB5      30.12R
FAITH            N/A     73  62  68 S9        30.14F
MOBRIDGE       PTSUNNY   70  61  73 SW3       30.09R
$$

SDZ012>016-024>037-041>051-057-063-072>074-121800-
SOUTHWEST AND SOUTH CENTRAL SOUTH DAKOTA

CITY           SKY/WX    TMP DP  RH WIND       PRES   REMARKS
RAPID CTY ARPT CLOUDY    64  61  90 SE7       30.19S
PIERRE         MOSUNNY   71  62  73 E6        30.09R
CUSTER         MOSUNNY   72  55  55 S6        30.28S
PHILIP         SUNNY     76  60  57 VRB5      30.13S
PINE RIDGE     PTSUNNY   71  61  70 E6        30.19R
WINNER         CLOUDY    76  66  71 NE6       30.09S
$$

SDZ004>011-016>023-039-040-121800-
NORTHEAST SOUTH DAKOTA

CITY           SKY/WX    TMP DP  RH WIND       PRES   REMARKS
ABERDEEN       CLOUDY    65  62  90 E7        30.06F
WATERTOWN      LGT RAIN  64  61  90 N9        30.09S
SISSETON         N/A     69  62  78 NW8       30.06F
$$

SDZ017-020-022-023-036>040-048>070-121800-
SOUTHEAST SOUTH DAKOTA

CITY           SKY/WX    TMP DP  RH WIND       PRES   REMARKS
SIOUX FALLS    LGT RAIN  75  66  73 W3        30.06R
HURON          LGT RAIN  70  63  78 NE10      30.06F
CHAMBERLAIN    CLOUDY    71  65  79 NE9       30.09R
MITCHELL       CLOUDY    75  67  76 N12       30.08S
YANKTON        CLOUDY    70  66  88 CALM      30.07S
$$

ABBREVIATIONS USED IN REMARKS
   TC - TEMPERATURE IN CELSIUS
  WCI - WIND CHILL INDEX
   HX - HEAT INDEX
  VSB - VISIBILITY




USA.gov is the U.S. government's official web portal to all federal, state and local government web resources and services.